Location: Austin
(30.3000°N, 97.7500°W)
Time: 02:23:58
(UTC-05:00)

DELTA 2 R/B (1) - Pass Details

Date: 11 June 2024
Orbit: 789 x 801 km, 39.6° (Epoch: 22 June)

Event Time Altitude Azimuth Distance (km) Brightness Sun altitude
Rises 20:50:33 0° 299° (WNW) 3,300 10.1 -4.1°
Reaches altitude 10° 20:53:08 10° 304° (NW) 2,369 8.0 -4.6°
Maximum altitude 20:58:33 49° 19° (NNE) 1,019 4.3 -5.6°
Drops below altitude 10° 21:03:57 10° 94° (E) 2,364 5.5 -6.6°
Enters shadow 21:05:05 - 97° (E) 2,767 5.8 -6.8°
